Time,TemperatureF,DewpointF,PressureIn,WindDirection,WindDirectionDegrees,WindSpeedMPH,WindSpeedGustMPH,Humidity,HourlyPrecipIn,Conditions,Clouds,dailyrainin,SolarRadiationWatts/m^2,SoftwareType,DateUTC
2013-11-23 00:01:00,36.5,31.2,30.27,NNW,340,5.0,6.0,81,0.00,,---,0.00,0.00,VWS V14.01,2013-11-23 05:01:00,
2013-11-23 00:03:00,36.5,31.2,30.27,NNW,344,5.0,6.0,81,0.00,,---,0.00,0.00,VWS V14.01,2013-11-23 05:03:00,
2013-11-23 00:08:00,36.4,31.1,30.26,NNE,14,4.0,5.0,81,0.00,,---,0.00,0.00,VWS V14.01,2013-11-23 05:08:00,
2013-11-23 00:13:00,36.4,31.1,30.26,North,9,1.0,7.0,81,0.00,,---,0.00,0.00,VWS V14.01,2013-11-23 05:13:00,
2013-11-23 00:18:00,36.3,30.7,30.26,NE,40,2.0,10.0,80,0.00,,---,0.00,0.00,VWS V14.01,2013-11-23 05:18:00,
2013-11-23 00:23:00,36.2,30.3,30.26,NNE,14,2.0,2.0,79,0.00,,---,0.00,0.00,VWS V14.01,2013-11-23 05:23:00,
2013-11-23 00:28:00,36.2,30.3,30.26,NNE,25,2.0,6.0,79,0.00,,---,0.00,0.00,VWS V14.01,2013-11-23 05:28:00,
2013-11-23 00:33:00,36.2,30.3,30.26,NE,34,0.0,3.0,79,0.00,,---,0.00,0.00,VWS V14.01,2013-11-23 05:33:00,
2013-11-23 00:38:00,36.2,30.3,30.26,North,11,0.0,5.0,79,0.00,,---,0.00,0.00,VWS V14.01,2013-11-23 05:38:00,
2013-11-23 00:43:00,36.2,30.3,30.26,North,355,5.0,5.0,79,0.00,,---,0.00,0.00,VWS V14.01,2013-11-23 05:43:00,
2013-11-23 00:48:00,36.1,30.2,30.27,NNW,344,2.0,10.0,79,0.00,,---,0.00,0.00,VWS V14.01,2013-11-23 05:48:00,
2013-11-23 00:53:00,36.0,30.1,30.26,North,355,0.0,4.0,79,0.00,,---,0.00,0.00,VWS V14.01,2013-11-23 05:53:00,
2013-11-23 00:58:00,36.0,30.1,30.26,North,355,1.0,2.0,79,0.00,,---,0.00,0.00,VWS V14.01,2013-11-23 05:58:00,
2013-11-23 01:03:00,35.9,30.0,30.27,NNW,346,2.0,4.0,79,0.00,,---,0.00,0.00,VWS V14.01,2013-11-23 06:03:00,
2013-11-23 01:08:00,35.9,30.0,30.27,NNW,346,0.0,3.0,79,0.00,,---,0.00,0.00,VWS V14.01,2013-11-23 06:08:00,
2013-11-23 01:13:00,35.8,29.9,30.27,NNW,343,4.0,4.0,79,0.00,,---,0.00,0.00,VWS V14.01,2013-11-23 06:13:00,
2013-11-23 01:18:00,35.7,29.8,30.27,NNW,348,3.0,5.0,79,0.00,,---,0.00,0.00,VWS V14.01,2013-11-23 06:18:00,
2013-11-23 01:23:00,35.6,29.4,30.27,NNW,348,1.0,4.0,78,0.00,,---,0.00,0.00,VWS V14.01,2013-11-23 06:23:00,
2013-11-23 01:28:00,35.6,29.7,30.27,NNW,338,4.0,4.0,79,0.00,,---,0.00,0.00,VWS V14.01,2013-11-23 06:28:00,
2013-11-23 01:33:00,35.4,29.2,30.27,NNW,333,1.0,3.0,78,0.00,,---,0.00,0.00,VWS V14.01,2013-11-23 06:33:00,
2013-11-23 01:38:00,35.2,29.0,30.27,North,351,0.0,4.0,78,0.00,,---,0.00,0.00,VWS V14.01,2013-11-23 06:38:00,
2013-11-23 01:43:00,35.0,29.2,30.28,North,351,0.0,1.0,79,0.00,,---,0.00,0.00,VWS V14.01,2013-11-23 06:43:00,
2013-11-23 01:48:00,34.8,29.0,30.28,North,351,0.0,3.0,79,0.00,,---,0.00,0.00,VWS V14.01,2013-11-23 06:48:00,
2013-11-23 01:53:00,34.6,28.8,30.28,North,351,0.0,0.0,79,0.00,,---,0.00,0.00,VWS V14.01,2013-11-23 06:53:00,
2013-11-23 01:58:00,34.4,28.6,30.28,North,351,0.0,3.0,79,0.00,,---,0.00,0.00,VWS V14.01,2013-11-23 06:58:00,
2013-11-23 02:03:00,34.2,28.4,30.28,NW,321,0.0,2.0,79,0.00,,---,0.00,0.00,VWS V14.01,2013-11-23 07:03:00,
2013-11-23 02:08:00,34.1,28.6,30.28,NW,321,0.0,0.0,80,0.00,,---,0.00,0.00,VWS V14.01,2013-11-23 07:08:00,
2013-11-23 02:13:00,33.9,28.4,30.29,NW,321,0.0,2.0,80,0.00,,---,0.00,0.00,VWS V14.01,2013-11-23 07:13:00,
2013-11-23 02:18:00,33.8,28.3,30.29,NW,322,0.0,2.0,80,0.00,,---,0.00,0.00,VWS V14.01,2013-11-23 07:18:00,
2013-11-23 02:23:00,33.6,28.1,30.29,NW,322,1.0,3.0,80,0.00,,---,0.00,0.00,VWS V14.01,2013-11-23 07:23:00,
2013-11-23 02:28:00,33.4,28.2,30.28,NW,322,0.0,1.0,81,0.00,,---,0.00,0.00,VWS V14.01,2013-11-23 07:28:00,
2013-11-23 02:33:00,33.3,28.1,30.28,NW,322,2.0,5.0,81,0.00,,---,0.00,0.00,VWS V14.01,2013-11-23 07:33:00,
2013-11-23 02:38:00,33.2,28.0,30.28,NW,323,0.0,4.0,81,0.00,,---,0.00,0.00,VWS V14.01,2013-11-23 07:38:00,
2013-11-23 02:43:00,33.1,27.9,30.28,NNW,335,0.0,3.0,81,0.00,,---,0.00,0.00,VWS V14.01,2013-11-23 07:43:00,
2013-11-23 02:48:00,32.9,28.0,30.28,NNW,336,2.0,2.0,82,0.00,,---,0.00,0.00,VWS V14.01,2013-11-23 07:48:00,
2013-11-23 02:53:00,32.8,27.9,30.28,NNW,336,1.0,3.0,82,0.00,,---,0.00,0.00,VWS V14.01,2013-11-23 07:53:00,
2013-11-23 02:58:00,32.7,27.8,30.28,NNW,336,0.0,1.0,82,0.00,,---,0.00,0.00,VWS V14.01,2013-11-23 07:58:00,
2013-11-23 03:03:00,32.5,27.6,30.28,NNW,336,0.0,0.0,82,0.00,,---,0.00,0.00,VWS V14.01,2013-11-23 08:03:00,
2013-11-23 03:08:00,32.4,27.5,30.28,NNW,336,0.0,0.0,82,0.00,,---,0.00,0.00,VWS V14.01,2013-11-23 08:08:00,
2013-11-23 03:13:00,32.3,27.4,30.27,NNW,336,0.0,0.0,82,0.00,,---,0.00,0.00,VWS V14.01,2013-11-23 08:13:00,
2013-11-23 03:18:00,32.2,27.3,30.27,NNW,336,0.0,0.0,82,0.00,,---,0.00,0.00,VWS V14.01,2013-11-23 08:18:00,
2013-11-23 03:23:00,32.0,27.1,30.27,NNW,336,0.0,0.0,82,0.00,,---,0.00,0.00,VWS V14.01,2013-11-23 08:23:00,
2013-11-23 03:28:00,31.9,27.3,30.27,NNW,336,0.0,0.0,83,0.00,,---,0.00,0.00,VWS V14.01,2013-11-23 08:28:00,
2013-11-23 03:33:00,31.7,27.1,30.27,NNW,336,0.0,0.0,83,0.00,,---,0.00,0.00,VWS V14.01,2013-11-23 08:33:00,
2013-11-23 03:38:00,31.5,27.2,30.27,NNW,336,0.0,0.0,84,0.00,,---,0.00,0.00,VWS V14.01,2013-11-23 08:38:00,
2013-11-23 03:43:00,31.4,27.1,30.27,NNW,336,0.0,0.0,84,0.00,,---,0.00,0.00,VWS V14.01,2013-11-23 08:43:00,
2013-11-23 03:48:00,31.3,27.3,30.27,NNW,336,0.0,1.0,85,0.00,,---,0.00,0.00,VWS V14.01,2013-11-23 08:48:00,
2013-11-23 03:53:00,31.1,27.1,30.27,NNW,336,0.0,0.0,85,0.00,,---,0.00,0.00,VWS V14.01,2013-11-23 08:53:00,
2013-11-23 03:58:00,31.0,27.3,30.27,NNW,336,0.0,1.0,86,0.00,,---,0.00,0.00,VWS V14.01,2013-11-23 08:58:00,
2013-11-23 04:03:00,30.8,27.1,30.27,NNW,335,0.0,1.0,86,0.00,,---,0.00,0.00,VWS V14.01,2013-11-23 09:03:00,
2013-11-23 04:08:00,30.7,27.0,30.27,NNW,335,0.0,2.0,86,0.00,,---,0.00,0.00,VWS V14.01,2013-11-23 09:08:00,
2013-11-23 04:13:00,30.6,27.2,30.27,NNW,335,0.0,1.0,87,0.00,,---,0.00,0.00,VWS V14.01,2013-11-23 09:13:00,
2013-11-23 04:18:00,30.5,27.1,30.28,NNW,335,0.0,1.0,87,0.00,,---,0.00,0.00,VWS V14.01,2013-11-23 09:18:00,
2013-11-23 04:23:00,30.3,26.9,30.28,NNW,335,0.0,2.0,87,0.00,,---,0.00,0.00,VWS V14.01,2013-11-23 09:23:00,
2013-11-23 04:29:00,30.2,27.1,30.28,NNW,335,0.0,0.0,88,0.00,,---,0.00,0.00,VWS V14.01,2013-11-23 09:29:00,
2013-11-23 04:34:00,30.1,27.0,30.28,NNW,335,0.0,0.0,88,0.00,,---,0.00,0.00,VWS V14.01,2013-11-23 09:34:00,
2013-11-23 04:39:00,30.0,26.9,30.28,NNW,335,0.0,0.0,88,0.00,,---,0.00,0.00,VWS V14.01,2013-11-23 09:39:00,
2013-11-23 04:44:00,29.9,26.8,30.28,NNW,335,0.0,0.0,88,0.00,,---,0.00,0.00,VWS V14.01,2013-11-23 09:44:00,
2013-11-23 04:49:00,29.8,27.0,30.28,NNW,335,0.0,0.0,89,0.00,,---,0.00,0.00,VWS V14.01,2013-11-23 09:49:00,
2013-11-23 04:54:00,29.7,26.9,30.29,NNW,335,0.0,0.0,89,0.00,,---,0.00,0.00,VWS V14.01,2013-11-23 09:54:00,
2013-11-23 04:59:00,29.6,26.8,30.28,NNW,335,0.0,0.0,89,0.00,,---,0.00,0.00,VWS V14.01,2013-11-23 09:59:00,
2013-11-23 05:04:00,29.6,26.8,30.28,NNW,335,0.0,0.0,89,0.00,,---,0.00,0.00,VWS V14.01,2013-11-23 10:04:00,
2013-11-23 05:09:00,29.5,26.7,30.28,NNW,335,0.0,0.0,89,0.00,,---,0.00,0.00,VWS V14.01,2013-11-23 10:09:00,
2013-11-23 05:14:00,29.4,26.6,30.28,NNW,335,0.0,1.0,89,0.00,,---,0.00,0.00,VWS V14.01,2013-11-23 10:14:00,
2013-11-23 05:19:00,29.3,26.7,30.28,NNW,335,0.0,0.0,90,0.00,,---,0.00,0.00,VWS V14.01,2013-11-23 10:19:00,
2013-11-23 05:24:00,29.3,26.5,30.28,NNW,335,0.0,0.0,89,0.00,,---,0.00,0.00,VWS V14.01,2013-11-23 10:24:00,
2013-11-23 05:29:00,29.2,26.4,30.28,NNW,335,0.0,0.0,89,0.00,,---,0.00,0.00,VWS V14.01,2013-11-23 10:29:00,
2013-11-23 05:34:00,29.1,26.5,30.28,NNW,335,0.0,0.0,90,0.00,,---,0.00,0.00,VWS V14.01,2013-11-23 10:34:00,
2013-11-23 05:39:00,29.0,26.4,30.28,NNW,335,0.0,1.0,90,0.00,,---,0.00,0.00,VWS V14.01,2013-11-23 10:39:00,
2013-11-23 05:44:00,29.0,26.4,30.28,NNW,335,0.0,0.0,90,0.00,,---,0.00,0.00,VWS V14.01,2013-11-23 10:44:00,
2013-11-23 05:49:00,28.9,26.3,30.28,NNW,335,0.0,0.0,90,0.00,,---,0.00,0.00,VWS V14.01,2013-11-23 10:49:00,
2013-11-23 05:54:00,28.8,26.2,30.28,NNW,335,0.0,1.0,90,0.00,,---,0.00,0.00,VWS V14.01,2013-11-23 10:54:00,
2013-11-23 05:59:00,28.7,26.1,30.28,NNW,335,0.0,0.0,90,0.00,,---,0.00,0.00,VWS V14.01,2013-11-23 10:59:00,
2013-11-23 06:04:00,28.6,26.0,30.28,NNW,335,0.0,1.0,90,0.00,,---,0.00,0.00,VWS V14.01,2013-11-23 11:04:00,
2013-11-23 06:09:00,28.5,26.0,30.28,NNW,335,0.0,1.0,90,0.00,,---,0.00,0.00,VWS V14.01,2013-11-23 11:09:00,
2013-11-23 06:14:00,28.5,26.0,30.28,NNW,335,0.0,0.0,90,0.00,,---,0.00,0.00,VWS V14.01,2013-11-23 11:14:00,
2013-11-23 06:19:00,28.4,25.9,30.28,NNW,335,0.0,0.0,90,0.00,,---,0.00,0.00,VWS V14.01,2013-11-23 11:19:00,
2013-11-23 06:24:00,28.4,25.9,30.28,NNW,335,0.0,1.0,90,0.00,,---,0.00,0.00,VWS V14.01,2013-11-23 11:24:00,
2013-11-23 06:29:00,28.3,25.8,30.29,NNW,335,0.0,0.0,90,0.00,,---,0.00,0.00,VWS V14.01,2013-11-23 11:29:00,
2013-11-23 06:34:00,28.2,25.6,30.29,NNW,335,0.0,1.0,90,0.00,,---,0.00,0.00,VWS V14.01,2013-11-23 11:34:00,
2013-11-23 06:39:00,28.1,25.5,30.29,NNW,335,0.0,1.0,90,0.00,,---,0.00,0.00,VWS V14.01,2013-11-23 11:39:00,
2013-11-23 06:44:00,28.0,25.5,30.29,NNW,335,0.0,2.0,90,0.00,,---,0.00,0.00,VWS V14.01,2013-11-23 11:44:00,
2013-11-23 06:49:00,28.0,25.5,30.30,NNW,335,0.0,1.0,90,0.00,,---,0.00,0.00,VWS V14.01,2013-11-23 11:49:00,
2013-11-23 06:54:00,27.9,25.4,30.29,NNW,335,0.0,0.0,90,0.00,,---,0.00,0.00,VWS V14.01,2013-11-23 11:54:00,
2013-11-23 06:59:00,27.9,25.4,30.29,NNW,335,0.0,3.0,90,0.00,,---,0.00,0.00,VWS V14.01,2013-11-23 11:59:00,
2013-11-23 07:04:00,27.7,25.2,30.29,NNW,335,0.0,2.0,90,0.00,,---,0.00,0.00,VWS V14.01,2013-11-23 12:04:00,
2013-11-23 07:09:00,27.6,25.1,30.29,NNW,335,1.0,2.0,90,0.00,,---,0.00,0.00,VWS V14.01,2013-11-23 12:09:00,
2013-11-23 07:14:00,27.5,25.0,30.29,NNW,335,1.0,1.0,90,0.00,,---,0.00,0.00,VWS V14.01,2013-11-23 12:14:00,
2013-11-23 07:19:00,27.5,25.0,30.29,NNW,335,0.0,3.0,90,0.00,,---,0.00,0.00,VWS V14.01,2013-11-23 12:19:00,
2013-11-23 07:24:00,27.4,24.9,30.29,NNW,335,0.0,0.0,90,0.00,,---,0.00,5.00,VWS V14.01,2013-11-23 12:24:00,
2013-11-23 07:29:00,27.4,24.9,30.29,NNW,335,0.0,0.0,90,0.00,,---,0.00,9.00,VWS V14.01,2013-11-23 12:29:00,
2013-11-23 07:34:00,27.4,25.1,30.29,NNW,335,2.0,2.0,91,0.00,,---,0.00,12.00,VWS V14.01,2013-11-23 12:34:00,
2013-11-23 07:39:00,27.4,25.1,30.30,NNW,335,0.0,3.0,91,0.00,,---,0.00,16.00,VWS V14.01,2013-11-23 12:39:00,
2013-11-23 07:44:00,27.4,25.1,30.30,NNW,335,1.0,3.0,91,0.00,,---,0.00,28.00,VWS V14.01,2013-11-23 12:44:00,
2013-11-23 07:49:00,27.4,25.1,30.30,NNW,333,2.0,3.0,91,0.00,,---,0.00,30.00,VWS V14.01,2013-11-23 12:49:00,
2013-11-23 07:54:00,27.3,25.0,30.30,NNW,333,0.0,3.0,91,0.00,,---,0.00,33.00,VWS V14.01,2013-11-23 12:54:00,
2013-11-23 07:59:00,27.4,25.1,30.30,NNW,333,0.0,3.0,91,0.00,,---,0.00,42.00,VWS V14.01,2013-11-23 12:59:00,
2013-11-23 08:04:00,27.4,25.1,30.30,NNW,333,0.0,2.0,91,0.00,,---,0.00,40.00,VWS V14.01,2013-11-23 13:04:00,
2013-11-23 08:09:00,27.5,25.2,30.30,NNW,333,0.0,0.0,91,0.00,,---,0.00,44.00,VWS V14.01,2013-11-23 13:09:00,
2013-11-23 08:14:00,27.6,25.3,30.30,NNW,333,0.0,0.0,91,0.00,,---,0.00,46.00,VWS V14.01,2013-11-23 13:14:00,
2013-11-23 08:19:00,27.6,25.3,30.30,NNW,333,0.0,0.0,91,0.00,,---,0.00,58.00,VWS V14.01,2013-11-23 13:19:00,
2013-11-23 08:24:00,27.7,25.4,30.30,NNW,333,0.0,0.0,91,0.00,,---,0.00,95.00,VWS V14.01,2013-11-23 13:24:00,
2013-11-23 08:29:00,27.9,25.9,30.30,NNW,333,1.0,2.0,92,0.00,,---,0.00,107.00,VWS V14.01,2013-11-23 13:29:00,
2013-11-23 08:34:00,28.2,26.2,30.30,WNW,285,2.0,5.0,92,0.00,,---,0.00,97.00,VWS V14.01,2013-11-23 13:34:00,
2013-11-23 08:39:00,28.5,26.5,30.30,West,281,4.0,4.0,92,0.00,,---,0.00,156.00,VWS V14.01,2013-11-23 13:39:00,
2013-11-23 08:44:00,28.9,26.9,30.30,West,277,3.0,5.0,92,0.00,,---,0.00,114.00,VWS V14.01,2013-11-23 13:44:00,
2013-11-23 08:49:00,29.2,27.2,30.30,West,267,4.0,5.0,92,0.00,,---,0.00,146.00,VWS V14.01,2013-11-23 13:49:00,
2013-11-23 08:54:00,29.4,27.1,30.30,WSW,257,2.0,6.0,91,0.00,,---,0.00,132.00,VWS V14.01,2013-11-23 13:54:00,
2013-11-23 08:59:00,29.6,27.3,30.30,WSW,253,5.0,6.0,91,0.00,,---,0.00,121.00,VWS V14.01,2013-11-23 13:59:00,
2013-11-23 09:04:00,29.7,27.4,30.30,WSW,257,4.0,9.0,91,0.00,,---,0.00,163.00,VWS V14.01,2013-11-23 14:04:00,
2013-11-23 09:09:00,29.9,27.6,30.30,SW,229,2.0,7.0,91,0.00,,---,0.00,151.00,VWS V14.01,2013-11-23 14:09:00,
2013-11-23 09:14:00,30.0,27.7,30.30,WSW,246,4.0,8.0,91,0.00,,---,0.00,148.00,VWS V14.01,2013-11-23 14:14:00,
2013-11-23 09:19:00,30.1,27.8,30.30,WSW,246,4.0,6.0,91,0.00,,---,0.00,118.00,VWS V14.01,2013-11-23 14:19:00,
2013-11-23 09:24:00,30.2,27.6,30.30,WSW,240,5.0,9.0,90,0.00,,---,0.00,149.00,VWS V14.01,2013-11-23 14:24:00,
2013-11-23 09:29:00,30.3,27.7,30.30,WSW,253,5.0,7.0,90,0.00,,---,0.00,104.00,VWS V14.01,2013-11-23 14:29:00,
2013-11-23 09:35:00,30.5,27.9,30.30,WSW,258,4.0,7.0,90,0.00,,---,0.00,70.00,VWS V14.01,2013-11-23 14:35:00,
2013-11-23 09:40:00,30.5,27.9,30.30,WSW,249,5.0,9.0,90,0.00,,---,0.00,116.00,VWS V14.01,2013-11-23 14:40:00,
2013-11-23 09:45:00,30.7,28.1,30.30,WNW,292,5.0,6.0,90,0.00,,---,0.00,114.00,VWS V14.01,2013-11-23 14:45:00,
2013-11-23 09:50:00,30.8,28.2,30.30,WNW,294,4.0,10.0,90,0.00,,---,0.00,100.00,VWS V14.01,2013-11-23 14:50:00,
2013-11-23 09:55:00,30.9,28.0,30.29,West,267,9.0,11.0,89,0.00,,---,0.00,137.00,VWS V14.01,2013-11-23 14:55:00,
2013-11-23 10:00:00,31.0,27.9,30.29,WNW,292,5.0,10.0,88,0.00,,---,0.00,158.00,VWS V14.01,2013-11-23 15:00:00,
2013-11-23 10:05:00,31.1,28.0,30.29,WSW,242,5.0,12.0,88,0.00,,---,0.00,327.00,VWS V14.01,2013-11-23 15:05:00,
2013-11-23 10:10:00,31.2,28.1,30.29,WSW,240,7.0,10.0,88,0.00,,---,0.00,374.00,VWS V14.01,2013-11-23 15:10:00,
2013-11-23 10:15:00,31.6,28.5,30.29,SW,231,7.0,13.0,88,0.00,,---,0.00,357.00,VWS V14.01,2013-11-23 15:15:00,
2013-11-23 10:20:00,31.7,28.3,30.28,SW,233,5.0,10.0,87,0.00,,---,0.00,383.00,VWS V14.01,2013-11-23 15:20:00,
2013-11-23 10:25:00,32.0,28.6,30.28,SW,218,7.0,10.0,87,0.00,,---,0.00,452.00,VWS V14.01,2013-11-23 15:25:00,
2013-11-23 10:30:00,32.4,29.0,30.28,WSW,254,12.0,14.0,87,0.00,,---,0.00,473.00,VWS V14.01,2013-11-23 15:30:00,
2013-11-23 10:35:00,32.7,29.0,30.28,West,260,9.0,13.0,86,0.00,,---,0.00,329.00,VWS V14.01,2013-11-23 15:35:00,
2013-11-23 10:40:00,33.0,29.0,30.27,WSW,242,6.0,14.0,85,0.00,,---,0.00,424.00,VWS V14.01,2013-11-23 15:40:00,
2013-11-23 10:45:00,33.3,29.0,30.27,SW,223,6.0,13.0,84,0.00,,---,0.00,336.00,VWS V14.01,2013-11-23 15:45:00,
2013-11-23 10:50:00,33.4,28.5,30.27,WSW,239,6.0,12.0,82,0.00,,---,0.00,480.00,VWS V14.01,2013-11-23 15:50:00,
2013-11-23 10:55:00,33.6,28.4,30.26,West,259,4.0,11.0,81,0.00,,---,0.00,420.00,VWS V14.01,2013-11-23 15:55:00,
2013-11-23 11:00:00,33.9,28.7,30.26,SW,228,9.0,12.0,81,0.00,,---,0.00,190.00,VWS V14.01,2013-11-23 16:00:00,
2013-11-23 11:05:00,33.8,27.7,30.26,West,265,9.0,10.0,78,0.00,,---,0.00,188.00,VWS V14.01,2013-11-23 16:05:00,
2013-11-23 11:10:00,33.6,27.2,30.26,West,259,7.0,12.0,77,0.00,,---,0.00,171.00,VWS V14.01,2013-11-23 16:10:00,
2013-11-23 11:15:00,33.4,26.3,30.26,WSW,251,7.0,12.0,75,0.00,,---,0.00,149.00,VWS V14.01,2013-11-23 16:15:00,
2013-11-23 11:20:00,33.3,25.9,30.26,West,263,11.0,14.0,74,0.00,,---,0.00,490.00,VWS V14.01,2013-11-23 16:20:00,
2013-11-23 11:25:00,33.7,25.3,30.26,West,277,5.0,15.0,71,0.00,,---,0.00,394.00,VWS V14.01,2013-11-23 16:25:00,
2013-11-23 11:30:00,34.1,25.4,30.26,WNW,299,5.0,16.0,70,0.00,,---,0.00,469.00,VWS V14.01,2013-11-23 16:30:00,
2013-11-23 11:35:00,34.3,25.5,30.25,NW,310,6.0,13.0,70,0.00,,---,0.00,499.00,VWS V14.01,2013-11-23 16:35:00,
2013-11-23 11:40:00,34.5,25.4,30.25,WNW,288,7.0,14.0,69,0.00,,---,0.00,496.00,VWS V14.01,2013-11-23 16:40:00,
2013-11-23 11:45:00,34.8,26.4,30.25,West,279,6.0,11.0,71,0.00,,---,0.00,471.00,VWS V14.01,2013-11-23 16:45:00,
2013-11-23 11:50:00,35.0,26.2,30.25,West,278,7.0,13.0,70,0.00,,---,0.00,519.00,VWS V14.01,2013-11-23 16:50:00,
2013-11-23 11:55:00,35.1,24.5,30.25,West,270,9.0,16.0,65,0.00,,---,0.00,504.00,VWS V14.01,2013-11-23 16:55:00,
2013-11-23 12:00:00,35.1,24.5,30.25,WNW,300,10.0,16.0,65,0.00,,---,0.00,499.00,VWS V14.01,2013-11-23 17:00:00,
2013-11-23 12:05:00,35.1,24.5,30.24,WNW,301,7.0,21.0,65,0.00,,---,0.00,499.00,VWS V14.01,2013-11-23 17:05:00,
2013-11-23 12:10:00,35.2,25.4,30.24,West,280,7.0,16.0,67,0.00,,---,0.00,352.00,VWS V14.01,2013-11-23 17:10:00,
2013-11-23 12:15:00,35.2,25.0,30.24,WNW,290,5.0,16.0,66,0.00,,---,0.00,506.00,VWS V14.01,2013-11-23 17:15:00,
2013-11-23 12:20:00,35.3,25.1,30.24,WNW,301,10.0,12.0,66,0.00,,---,0.00,527.00,VWS V14.01,2013-11-23 17:20:00,
2013-11-23 12:25:00,35.3,25.8,30.24,WNW,293,10.0,18.0,68,0.00,,---,0.00,587.00,VWS V14.01,2013-11-23 17:25:00,
2013-11-23 12:30:00,35.2,24.6,30.24,West,281,13.0,19.0,65,0.00,,---,0.00,130.00,VWS V14.01,2013-11-23 17:30:00,
2013-11-23 12:35:00,34.8,24.2,30.24,WNW,296,8.0,10.0,65,0.00,,---,0.00,132.00,VWS V14.01,2013-11-23 17:35:00,
2013-11-23 12:40:00,34.5,25.0,30.23,WNW,298,5.0,12.0,68,0.00,,---,0.00,158.00,VWS V14.01,2013-11-23 17:40:00,
2013-11-23 12:45:00,34.9,25.4,30.23,WNW,301,10.0,16.0,68,0.00,,---,0.00,193.00,VWS V14.01,2013-11-23 17:45:00,
2013-11-23 12:50:00,34.8,25.0,30.23,WSW,252,9.0,14.0,67,0.00,,---,0.00,174.00,VWS V14.01,2013-11-23 17:50:00,
2013-11-23 12:55:00,34.5,24.3,30.23,WNW,286,3.0,13.0,66,0.00,,---,0.00,304.00,VWS V14.01,2013-11-23 17:55:00,
2013-11-23 13:00:00,34.3,24.5,30.23,WNW,289,11.0,14.0,67,0.00,,---,0.00,125.00,VWS V14.01,2013-11-23 18:00:00,
2013-11-23 13:05:00,34.0,23.9,30.23,WNW,289,11.0,11.0,66,0.00,,---,0.00,244.00,VWS V14.01,2013-11-23 18:05:00,
2013-11-23 13:10:00,33.9,23.8,30.23,NNW,346,10.0,10.0,66,0.00,,---,0.00,554.00,VWS V14.01,2013-11-23 18:10:00,
2013-11-23 13:15:00,34.1,23.6,30.22,WNW,288,6.0,12.0,65,0.00,,---,0.00,132.00,VWS V14.01,2013-11-23 18:15:00,
2013-11-23 13:20:00,34.0,23.5,30.22,WNW,296,7.0,12.0,65,0.00,,---,0.00,109.00,VWS V14.01,2013-11-23 18:20:00,
2013-11-23 13:25:00,33.8,23.7,30.22,West,280,7.0,14.0,66,0.00,,---,0.00,171.00,VWS V14.01,2013-11-23 18:25:00,
2013-11-23 13:30:00,34.0,24.6,30.23,NW,308,14.0,15.0,68,0.00,,---,0.00,587.00,VWS V14.01,2013-11-23 18:30:00,
2013-11-23 13:35:00,34.4,24.6,30.23,WNW,284,11.0,12.0,67,0.00,,---,0.00,120.00,VWS V14.01,2013-11-23 18:35:00,
2013-11-23 13:40:00,34.1,23.6,30.22,NW,309,6.0,10.0,65,0.00,,---,0.00,135.00,VWS V14.01,2013-11-23 18:40:00,
2013-11-23 13:45:00,34.1,24.3,30.23,WNW,295,6.0,10.0,67,0.00,,---,0.00,534.00,VWS V14.01,2013-11-23 18:45:00,
2013-11-23 13:51:00,34.5,24.3,30.23,West,281,12.0,12.0,66,0.00,,---,0.00,526.00,VWS V14.01,2013-11-23 18:51:00,
2013-11-23 13:56:00,34.8,23.5,30.23,NW,310,14.0,14.0,63,0.00,,---,0.00,531.00,VWS V14.01,2013-11-23 18:56:00,
2013-11-23 14:01:00,34.9,22.8,30.23,NW,306,6.0,15.0,61,0.00,,---,0.00,114.00,VWS V14.01,2013-11-23 19:01:00,
2013-11-23 14:06:00,34.5,22.8,30.23,WNW,284,7.0,11.0,62,0.00,,---,0.00,158.00,VWS V14.01,2013-11-23 19:06:00,
2013-11-23 14:11:00,34.0,22.4,30.23,NW,311,13.0,14.0,62,0.00,,---,0.00,116.00,VWS V14.01,2013-11-23 19:11:00,
2013-11-23 14:16:00,33.7,22.5,30.23,West,275,13.0,13.0,63,0.00,,---,0.00,86.00,VWS V14.01,2013-11-23 19:16:00,
2013-11-23 14:21:00,33.6,23.1,30.23,WNW,292,6.0,14.0,65,0.00,,---,0.00,139.00,VWS V14.01,2013-11-23 19:21:00,
2013-11-23 14:26:00,33.6,22.4,30.23,NW,309,11.0,19.0,63,0.00,,---,0.00,130.00,VWS V14.01,2013-11-23 19:26:00,
2013-11-23 14:31:00,33.5,21.9,30.23,WNW,286,11.0,15.0,62,0.00,,---,0.00,158.00,VWS V14.01,2013-11-23 19:31:00,
2013-11-23 14:36:00,33.5,22.3,30.23,WNW,302,10.0,10.0,63,0.00,,---,0.00,137.00,VWS V14.01,2013-11-23 19:36:00,
2013-11-23 14:41:00,33.5,23.0,30.23,WNW,291,12.0,12.0,65,0.00,,---,0.00,139.00,VWS V14.01,2013-11-23 19:41:00,
2013-11-23 14:46:00,33.5,23.4,30.23,WNW,293,7.0,13.0,66,0.00,,---,0.00,91.00,VWS V14.01,2013-11-23 19:46:00,
2013-11-23 14:51:00,33.2,23.8,30.24,NW,323,11.0,18.0,68,0.00,,---,0.00,33.00,VWS V14.01,2013-11-23 19:51:00,
2013-11-23 14:56:00,32.6,23.9,30.24,WNW,293,15.0,15.0,70,0.00,,---,0.00,44.00,VWS V14.01,2013-11-23 19:56:00,
2013-11-23 15:01:00,32.0,24.3,30.25,NW,306,6.0,11.0,73,0.00,,---,0.00,91.00,VWS V14.01,2013-11-23 20:01:00,
2013-11-23 15:06:00,31.7,25.0,30.25,West,277,11.0,11.0,76,0.00,,---,0.00,79.00,VWS V14.01,2013-11-23 20:06:00,
2013-11-23 15:11:00,31.6,24.9,30.25,WNW,294,11.0,13.0,76,0.00,,---,0.00,290.00,VWS V14.01,2013-11-23 20:11:00,
2013-11-23 15:16:00,31.8,25.4,30.25,WNW,300,9.0,14.0,77,0.00,,---,0.00,137.00,VWS V14.01,2013-11-23 20:16:00,
2013-11-23 15:21:00,32.0,25.0,30.25,West,271,4.0,7.0,75,0.00,,---,0.00,83.00,VWS V14.01,2013-11-23 20:21:00,
2013-11-23 15:26:00,32.1,25.1,30.25,West,265,13.0,15.0,75,0.00,,---,0.00,26.00,VWS V14.01,2013-11-23 20:26:00,
2013-11-23 15:31:00,31.9,23.9,30.25,NW,309,10.0,14.0,72,0.00,,---,0.00,40.00,VWS V14.01,2013-11-23 20:31:00,
2013-11-23 15:36:00,31.7,22.7,30.26,West,269,7.0,18.0,69,0.00,,---,0.00,54.00,VWS V14.01,2013-11-23 20:36:00,
2013-11-23 15:41:00,31.5,22.9,30.26,NW,313,10.0,15.0,70,0.00,,---,0.00,83.00,VWS V14.01,2013-11-23 20:41:00,
2013-11-23 15:46:00,31.5,22.9,30.26,NW,306,8.0,11.0,70,0.00,,---,0.00,95.00,VWS V14.01,2013-11-23 20:46:00,
2013-11-23 15:51:00,31.5,23.5,30.26,NW,307,16.0,16.0,72,0.00,,---,0.00,42.00,VWS V14.01,2013-11-23 20:51:00,
2013-11-23 15:56:00,31.1,24.4,30.27,WNW,292,17.0,17.0,76,0.00,,---,0.00,46.00,VWS V14.01,2013-11-23 20:56:00,
2013-11-23 16:01:00,30.5,25.1,30.27,NW,309,9.0,11.0,80,0.00,,---,0.00,63.00,VWS V14.01,2013-11-23 21:01:00,
2013-11-23 16:06:00,30.0,24.9,30.28,NW,325,17.0,20.0,81,0.00,,---,0.00,44.00,VWS V14.01,2013-11-23 21:06:00,
2013-11-23 16:11:00,29.6,24.2,30.28,WNW,302,9.0,16.0,80,0.00,,---,0.00,47.00,VWS V14.01,2013-11-23 21:11:00,
2013-11-23 16:16:00,29.3,23.6,30.28,NW,321,15.0,20.0,79,0.00,,---,0.00,39.00,VWS V14.01,2013-11-23 21:16:00,
2013-11-23 16:21:00,29.2,22.9,30.29,NW,315,12.0,22.0,77,0.00,,---,0.00,26.00,VWS V14.01,2013-11-23 21:21:00,
2013-11-23 16:26:00,29.2,22.9,30.29,NNW,338,12.0,17.0,77,0.00,,---,0.00,28.00,VWS V14.01,2013-11-23 21:26:00,
2013-11-23 16:31:00,29.1,22.5,30.30,NW,309,15.0,17.0,76,0.00,,---,0.00,19.00,VWS V14.01,2013-11-23 21:31:00,
2013-11-23 16:36:00,29.1,21.9,30.30,NNW,329,4.0,11.0,74,0.00,,---,0.00,18.00,VWS V14.01,2013-11-23 21:36:00,
2013-11-23 16:41:00,29.0,21.4,30.30,NW,326,14.0,18.0,73,0.00,,---,0.00,19.00,VWS V14.01,2013-11-23 21:41:00,
2013-11-23 16:46:00,28.8,21.2,30.30,WNW,285,11.0,13.0,73,0.00,,---,0.00,21.00,VWS V14.01,2013-11-23 21:46:00,
2013-11-23 16:51:00,28.6,21.1,30.30,NW,313,13.0,13.0,73,0.00,,---,0.00,16.00,VWS V14.01,2013-11-23 21:51:00,
2013-11-23 16:56:00,28.5,21.0,30.31,NNW,331,13.0,17.0,73,0.00,,---,0.00,11.00,VWS V14.01,2013-11-23 21:56:00,
2013-11-23 17:02:00,28.4,20.9,30.31,NW,306,9.0,11.0,73,0.00,,---,0.00,5.00,VWS V14.01,2013-11-23 22:02:00,
2013-11-23 17:07:00,28.4,21.2,30.31,NW,312,5.0,10.0,74,0.00,,---,0.00,0.00,VWS V14.01,2013-11-23 22:07:00,
2013-11-23 17:12:00,28.3,21.1,30.31,NW,309,6.0,18.0,74,0.00,,---,0.00,0.00,VWS V14.01,2013-11-23 22:12:00,
2013-11-23 17:17:00,28.3,21.4,30.32,WNW,301,3.0,13.0,75,0.00,,---,0.00,0.00,VWS V14.01,2013-11-23 22:17:00,
2013-11-23 17:22:00,28.2,21.6,30.32,NNW,333,5.0,11.0,76,0.00,,---,0.00,0.00,VWS V14.01,2013-11-23 22:22:00,
2013-11-23 17:27:00,28.1,21.2,30.32,NW,318,12.0,13.0,75,0.00,,---,0.00,0.00,VWS V14.01,2013-11-23 22:27:00,
2013-11-23 17:32:00,27.9,21.0,30.32,NW,317,11.0,12.0,75,0.00,,---,0.00,0.00,VWS V14.01,2013-11-23 22:32:00,
2013-11-23 17:37:00,27.8,20.3,30.32,NW,319,10.0,12.0,73,0.00,,---,0.00,0.00,VWS V14.01,2013-11-23 22:37:00,
2013-11-23 17:42:00,27.7,20.2,30.32,NW,316,3.0,6.0,73,0.00,,---,0.00,0.00,VWS V14.01,2013-11-23 22:42:00,
2013-11-23 17:47:00,27.7,19.9,30.33,NW,319,17.0,18.0,72,0.00,,---,0.00,0.00,VWS V14.01,2013-11-23 22:47:00,
2013-11-23 17:52:00,27.7,19.5,30.33,NW,318,5.0,14.0,71,0.00,,---,0.00,0.00,VWS V14.01,2013-11-23 22:52:00,
2013-11-23 17:57:00,27.7,19.9,30.33,NW,325,5.0,7.0,72,0.00,,---,0.00,0.00,VWS V14.01,2013-11-23 22:57:00,
2013-11-23 18:02:00,27.6,18.8,30.33,NW,311,5.0,12.0,69,0.00,,---,0.00,0.00,VWS V14.01,2013-11-23 23:02:00,
2013-11-23 18:07:00,27.6,19.1,30.33,WNW,290,5.0,14.0,70,0.00,,---,0.00,0.00,VWS V14.01,2013-11-23 23:07:00,
2013-11-23 18:09:00,27.5,18.7,30.33,NW,306,8.0,14.0,69,0.00,,---,0.00,0.00,VWS V14.01,2013-11-23 23:09:00,
2013-11-23 18:14:00,27.4,18.2,30.33,WNW,294,11.0,16.0,68,0.00,,---,0.00,0.00,VWS V14.01,2013-11-23 23:14:00,
2013-11-23 18:19:00,27.5,18.3,30.33,WNW,297,15.0,15.0,68,0.00,,---,0.00,0.00,VWS V14.01,2013-11-23 23:19:00,
2013-11-23 18:24:00,27.5,16.6,30.34,West,267,12.0,22.0,63,0.00,,---,0.00,0.00,VWS V14.01,2013-11-23 23:24:00,
2013-11-23 18:29:00,27.4,16.5,30.34,NW,313,9.0,14.0,63,0.00,,---,0.00,0.00,VWS V14.01,2013-11-23 23:29:00,
2013-11-23 18:34:00,27.4,16.1,30.35,WNW,303,12.0,18.0,62,0.00,,---,0.00,0.00,VWS V14.01,2013-11-23 23:34:00,
2013-11-23 18:39:00,27.4,15.7,30.35,NNW,342,8.0,16.0,61,0.00,,---,0.00,0.00,VWS V14.01,2013-11-23 23:39:00,
2013-11-23 18:44:00,27.3,16.0,30.36,WNW,302,20.0,20.0,62,0.00,,---,0.00,0.00,VWS V14.01,2013-11-23 23:44:00,
2013-11-23 18:49:00,27.0,16.1,30.36,NNW,342,6.0,25.0,63,0.00,,---,0.00,0.00,VWS V14.01,2013-11-23 23:49:00,
2013-11-23 18:54:00,26.6,16.1,30.37,NW,304,11.0,19.0,64,0.00,,---,0.00,0.00,VWS V14.01,2013-11-23 23:54:00,
2013-11-23 18:59:00,26.3,15.8,30.37,NW,305,12.0,16.0,64,0.00,,---,0.00,0.00,VWS V14.01,2013-11-23 23:59:00,
2013-11-23 19:04:00,26.1,16.0,30.37,NW,321,6.0,14.0,65,0.00,,---,0.00,0.00,VWS V14.01,2013-11-24 00:04:00,
2013-11-23 19:09:00,25.8,15.3,30.36,WNW,292,7.0,13.0,64,0.00,,---,0.00,0.00,VWS V14.01,2013-11-24 00:09:00,
2013-11-23 19:14:00,25.7,15.2,30.37,NW,321,12.0,12.0,64,0.00,,---,0.00,0.00,VWS V14.01,2013-11-24 00:14:00,
2013-11-23 19:19:00,25.6,15.5,30.37,NW,306,5.0,9.0,65,0.00,,---,0.00,0.00,VWS V14.01,2013-11-24 00:19:00,
2013-11-23 19:24:00,25.4,15.3,30.37,NW,324,6.0,10.0,65,0.00,,---,0.00,0.00,VWS V14.01,2013-11-24 00:24:00,
2013-11-23 19:29:00,25.3,15.6,30.37,NW,317,4.0,9.0,66,0.00,,---,0.00,0.00,VWS V14.01,2013-11-24 00:29:00,
2013-11-23 19:34:00,25.1,15.4,30.37,NW,311,5.0,9.0,66,0.00,,---,0.00,0.00,VWS V14.01,2013-11-24 00:34:00,
2013-11-23 19:39:00,25.1,15.4,30.38,NNW,348,9.0,11.0,66,0.00,,---,0.00,0.00,VWS V14.01,2013-11-24 00:39:00,
2013-11-23 19:44:00,25.0,15.3,30.38,NNW,333,8.0,13.0,66,0.00,,---,0.00,0.00,VWS V14.01,2013-11-24 00:44:00,
2013-11-23 19:49:00,25.0,15.6,30.38,NW,315,10.0,14.0,67,0.00,,---,0.00,0.00,VWS V14.01,2013-11-24 00:49:00,
2013-11-23 19:54:00,24.9,15.5,30.39,NW,311,7.0,12.0,67,0.00,,---,0.00,0.00,VWS V14.01,2013-11-24 00:54:00,
2013-11-23 20:00:00,24.8,15.4,30.39,NNW,334,10.0,15.0,67,0.00,,---,0.00,0.00,VWS V14.01,2013-11-24 01:00:00,
2013-11-23 20:05:00,24.8,15.4,30.39,NNW,333,3.0,10.0,67,0.00,,---,0.00,0.00,VWS V14.01,2013-11-24 01:05:00,
2013-11-23 20:10:00,24.6,15.6,30.39,NW,313,6.0,7.0,68,0.00,,---,0.00,0.00,VWS V14.01,2013-11-24 01:10:00,
2013-11-23 20:15:00,24.5,15.5,30.39,NW,320,2.0,11.0,68,0.00,,---,0.00,0.00,VWS V14.01,2013-11-24 01:15:00,
2013-11-23 20:20:00,24.4,15.7,30.39,NW,326,5.0,10.0,69,0.00,,---,0.00,0.00,VWS V14.01,2013-11-24 01:20:00,
2013-11-23 20:25:00,24.3,15.6,30.39,NW,323,3.0,10.0,69,0.00,,---,0.00,0.00,VWS V14.01,2013-11-24 01:25:00,
2013-11-23 20:30:00,24.2,15.5,30.39,NW,321,5.0,9.0,69,0.00,,---,0.00,0.00,VWS V14.01,2013-11-24 01:30:00,
2013-11-23 20:35:00,24.1,15.1,30.40,WNW,301,6.0,12.0,68,0.00,,---,0.00,0.00,VWS V14.01,2013-11-24 01:35:00,
2013-11-23 20:40:00,24.0,14.6,30.40,NW,311,5.0,13.0,67,0.00,,---,0.00,0.00,VWS V14.01,2013-11-24 01:40:00,
2013-11-23 20:45:00,23.9,13.9,30.40,NW,313,12.0,14.0,65,0.00,,---,0.00,0.00,VWS V14.01,2013-11-24 01:45:00,
2013-11-23 20:50:00,23.8,13.1,30.41,NW,316,13.0,13.0,63,0.00,,---,0.00,0.00,VWS V14.01,2013-11-24 01:50:00,
2013-11-23 20:55:00,23.8,12.7,30.41,NW,315,11.0,15.0,62,0.00,,---,0.00,0.00,VWS V14.01,2013-11-24 01:55:00,
2013-11-23 21:00:00,23.8,13.1,30.41,NW,317,11.0,11.0,63,0.00,,---,0.00,0.00,VWS V14.01,2013-11-24 02:00:00,
2013-11-23 21:05:00,23.6,12.5,30.41,NNW,340,8.0,17.0,62,0.00,,---,0.00,0.00,VWS V14.01,2013-11-24 02:05:00,
2013-11-23 21:10:00,23.5,12.4,30.41,NNW,328,6.0,13.0,62,0.00,,---,0.00,0.00,VWS V14.01,2013-11-24 02:10:00,
2013-11-23 21:15:00,23.4,12.3,30.41,NNW,337,7.0,14.0,62,0.00,,---,0.00,0.00,VWS V14.01,2013-11-24 02:15:00,
2013-11-23 21:20:00,23.4,12.3,30.41,NW,317,5.0,11.0,62,0.00,,---,0.00,0.00,VWS V14.01,2013-11-24 02:20:00,
2013-11-23 21:25:00,23.3,12.6,30.42,NW,319,7.0,11.0,63,0.00,,---,0.00,0.00,VWS V14.01,2013-11-24 02:25:00,
2013-11-23 21:30:00,23.1,12.4,30.42,WNW,302,4.0,10.0,63,0.00,,---,0.00,0.00,VWS V14.01,2013-11-24 02:30:00,
2013-11-23 21:35:00,23.0,12.6,30.42,NNW,330,3.0,11.0,64,0.00,,---,0.00,0.00,VWS V14.01,2013-11-24 02:35:00,
2013-11-23 21:40:00,22.9,12.6,30.42,NW,320,5.0,11.0,64,0.00,,---,0.00,0.00,VWS V14.01,2013-11-24 02:40:00,
2013-11-23 21:45:00,22.8,12.8,30.42,NW,312,6.0,11.0,65,0.00,,---,0.00,0.00,VWS V14.01,2013-11-24 02:45:00,
2013-11-23 21:50:00,22.7,12.7,30.42,NNW,333,6.0,10.0,65,0.00,,---,0.00,0.00,VWS V14.01,2013-11-24 02:50:00,
2013-11-23 21:55:00,22.6,13.0,30.42,NW,312,3.0,5.0,66,0.00,,---,0.00,0.00,VWS V14.01,2013-11-24 02:55:00,
2013-11-23 22:00:00,22.6,13.3,30.42,NW,317,7.0,7.0,67,0.00,,---,0.00,0.00,VWS V14.01,2013-11-24 03:00:00,
2013-11-23 22:05:00,22.7,13.4,30.42,NW,317,6.0,11.0,67,0.00,,---,0.00,0.00,VWS V14.01,2013-11-24 03:05:00,
2013-11-23 22:10:00,22.8,14.8,30.43,NW,313,7.0,16.0,71,0.00,,---,0.00,0.00,VWS V14.01,2013-11-24 03:10:00,
2013-11-23 22:15:00,22.4,16.6,30.43,NNW,344,5.0,15.0,78,0.00,,---,0.00,0.00,VWS V14.01,2013-11-24 03:15:00,
2013-11-23 22:20:00,21.9,16.7,30.42,NW,304,9.0,9.0,80,0.00,,---,0.00,0.00,VWS V14.01,2013-11-24 03:20:00,
2013-11-23 22:25:00,21.4,16.2,30.42,NW,319,4.0,14.0,80,0.00,,---,0.00,0.00,VWS V14.01,2013-11-24 03:25:00,
2013-11-23 22:30:00,21.2,15.7,30.43,NW,317,8.0,15.0,79,0.00,,---,0.00,0.00,VWS V14.01,2013-11-24 03:30:00,
2013-11-23 22:35:00,21.3,14.9,30.43,WNW,285,9.0,14.0,76,0.00,,---,0.00,0.00,VWS V14.01,2013-11-24 03:35:00,
2013-11-23 22:40:00,21.5,14.2,30.43,NW,317,5.0,14.0,73,0.00,,---,0.00,0.00,VWS V14.01,2013-11-24 03:40:00,
2013-11-23 22:45:00,21.7,13.8,30.43,NW,305,10.0,16.0,71,0.00,,---,0.00,0.00,VWS V14.01,2013-11-24 03:45:00,
2013-11-23 22:50:00,21.8,13.5,30.43,NNW,330,7.0,13.0,70,0.00,,---,0.00,0.00,VWS V14.01,2013-11-24 03:50:00,
2013-11-23 22:55:00,22.0,13.4,30.44,NNE,15,11.0,11.0,69,0.00,,---,0.00,0.00,VWS V14.01,2013-11-24 03:55:00,
2013-11-23 23:00:00,21.7,15.6,30.44,NNW,330,6.0,15.0,77,0.00,,---,0.00,0.00,VWS V14.01,2013-11-24 04:00:00,
2013-11-23 23:05:00,21.2,15.7,30.44,NNW,340,2.0,3.0,79,0.00,,---,0.00,0.00,VWS V14.01,2013-11-24 04:05:00,
2013-11-23 23:10:00,21.0,15.5,30.44,NNW,348,6.0,7.0,79,0.00,,---,0.00,0.00,VWS V14.01,2013-11-24 04:10:00,
2013-11-23 23:15:00,20.9,15.1,30.44,NNW,328,3.0,3.0,78,0.00,,---,0.00,0.00,VWS V14.01,2013-11-24 04:15:00,
2013-11-23 23:20:00,21.0,14.9,30.44,NW,323,9.0,9.0,77,0.00,,---,0.00,0.00,VWS V14.01,2013-11-24 04:20:00,
2013-11-23 23:25:00,21.0,14.3,30.44,NW,317,9.0,9.0,75,0.00,,---,0.00,0.00,VWS V14.01,2013-11-24 04:25:00,
2013-11-23 23:30:00,21.1,13.8,30.44,NNW,342,9.0,10.0,73,0.00,,---,0.00,0.00,VWS V14.01,2013-11-24 04:30:00,
2013-11-23 23:35:00,21.1,13.5,30.44,WNW,300,14.0,15.0,72,0.00,,---,0.00,0.00,VWS V14.01,2013-11-24 04:35:00,
2013-11-23 23:41:00,21.0,12.8,30.45,NW,319,10.0,10.0,70,0.00,,---,0.00,0.00,VWS V14.01,2013-11-24 04:41:00,
2013-11-23 23:46:00,20.8,12.2,30.45,North,355,11.0,13.0,69,0.00,,---,0.00,0.00,VWS V14.01,2013-11-24 04:46:00,
2013-11-23 23:51:00,20.6,12.4,30.45,NNW,327,7.0,7.0,70,0.00,,---,0.00,0.00,VWS V14.01,2013-11-24 04:51:00,
2013-11-23 23:56:00,20.4,12.2,30.45,NNW,328,6.0,11.0,70,0.00,,---,0.00,0.00,VWS V14.01,2013-11-24 04:56:00,